Temp
79 80 79 77 75 73 75 72 75 76 76 76 76 77 75 73 72 72 72 73 73 74
79 78 78 76 75 75 75 76 77 77 75 76 75 75 74 72 74 70 71 73 73 70
76 79 80 76 74 75 75 79 78 76 75 77 78 75 74 73 74 71 69 69 70 70
76 79 79 76 76 75 76 77 76 77 76 76 76 76 73 73 74 70 70 68 69 70
77 79 75 75 75 76 76 79 79 76 79 77 76 75 74 74 75 74 73 72 72 69
77 76 74 74 75 76 75 79 81 78 78 78 77 76 75 76 75 72 69 69 70 66
75 76 76 76 75 73 75 76 79 77 79 78 78 77 76 74 70 70 71 73 71 66
75 79 76 77 76 75 76 75 78 77 76 72 72 72 71 70 71 72 72 73 72 67
75 77 75 75 76 74 75 73 72 70 69 70 77 53 56 64 72 72 72 70 70 68
76 75 73 76 75 72 71 70 69 70 69 72 69 52 52 55 71 70 70 69 68 68
82 76 74 73 73 71 69 66 63 64 67 71 67 50 50 54 70 71 70 69 68 65
84 78 74 74 71 71 73 70 67 67 61 64 65 48 47 55 73 71 68 69 67 64
85 82 80 77 71 72 72 70 70 67 65 55 68 46 46 55 70 69 63 62 61 50
84 81 79 77 72 72 73 71 69 67 63 63 67 63 46 49 71 70 66 66 64 62
MSLP
1003.95 1003.96 1004.21 1004.58 1005.01 1005.19 1005.14 1005.56 1005.73 1005.63 1005.88 1006.21 1006.29 1006.16 1006.57 1006.93 1007.14 1007.20 1007.22 1007.11 1007.40 1007.36
1003.87 1004.14 1004.20 1004.52 1004.99 1005.05 1005.27 1005.37 1005.44 1005.64 1006.03 1006.19 1006.29 1006.55 1006.80 1006.99 1006.81 1007.16 1007.18 1007.22 1007.51 1007.69
1003.94 1004.07 1004.06 1004.66 1005.03 1005.04 1005.21 1004.80 1005.28 1005.82 1005.98 1005.79 1005.88 1006.40 1006.82 1006.86 1006.92 1007.22 1007.61 1007.77 1007.78 1007.77
1003.76 1003.86 1004.07 1004.72 1004.88 1005.19 1005.07 1005.14 1005.46 1005.76 1005.83 1005.97 1006.21 1006.56 1006.96 1006.97 1007.04 1007.43 1007.61 1007.76 1007.63 1007.52
1003.81 1003.70 1004.44 1004.68 1005.01 1005.23 1005.22 1004.97 1004.99 1005.43 1005.39 1005.62 1006.20 1006.70 1006.75 1006.82 1007.00 1007.25 1007.49 1007.83 1007.75 1008.07
1003.78 1004.25 1004.56 1004.80 1004.98 1005.18 1005.37 1004.88 1005.00 1005.36 1005.67 1005.77 1006.14 1006.65 1006.90 1006.94 1007.11 1007.47 1007.95 1008.17 1008.18 1008.53
1004.01 1004.29 1004.48 1004.84 1005.07 1005.36 1005.50 1005.36 1005.18 1005.47 1005.76 1006.19 1006.53 1006.83 1007.06 1007.38 1007.83 1008.06 1008.07 1008.02 1008.26 1008.63
1004.03 1004.05 1004.59 1004.75 1005.07 1005.42 1005.63 1005.74 1005.56 1006.16 1006.43 1007.18 1007.41 1007.69 1007.74 1008.00 1008.07 1007.88 1007.94 1008.06 1008.47 1009.11
1003.75 1004.13 1004.57 1004.91 1005.01 1005.70 1005.70 1006.10 1006.65 1007.16 1007.48 1007.59 1007.13 1008.33 1008.51 1008.46 1008.11 1008.11 1008.20 1008.48 1008.91 1009.71
1003.81 1004.28 1004.80 1005.04 1005.21 1005.91 1006.18 1006.58 1006.91 1007.25 1007.74 1007.63 1008.51 1009.03 1009.03 1008.96 1008.76 1008.81 1008.74 1009.07 1009.49 1009.94
1003.04 1004.09 1004.62 1005.23 1005.53 1006.17 1006.55 1006.90 1007.30 1007.77 1007.97 1007.98 1009.16 1009.45 1009.52 1009.44 1009.19 1009.13 1009.28 1009.58 1010.02 1010.55
1002.68 1003.75 1004.48 1004.97 1005.66 1006.09 1006.31 1006.74 1007.38 1007.96 1008.58 1008.84 1009.58 1009.88 1009.98 1010.00 1009.19 1009.43 1009.92 1010.30 1010.82 1011.27
1002.49 1003.33 1003.91 1004.75 1005.64 1006.11 1006.43 1006.87 1007.30 1008.01 1008.82 1009.37 1009.47 1010.23 1010.32 1010.18 1009.91 1009.99 1010.59 1011.33 1011.83 1012.02
1002.63 1003.43 1004.11 1004.97 1005.57 1006.10 1006.44 1006.95 1007.49 1008.17 1009.09 1009.68 1009.58 1010.41 1010.56 1010.40 1010.03 1010.32 1010.89 1011.69 1012.30 1012.85
Wind_Speed
5 6 5 0 2 2 3 3 6 5 4 5 7 8 7 4 4 6 4 5 4 4
4 3 3 2 2 2 2 6 5 5 5 7 6 6 6 4 3 1 3 6 4 2
3 4 2 2 2 4 4 4 6 5 5 6 7 6 5 4 4 5 3 2 2 4
4 3 3 1 2 3 4 4 7 7 7 6 5 6 4 4 5 4 3 5 6 1
3 1 3 2 5 4 6 8 7 5 5 5 7 5 4 5 6 5 4 4 3 4
4 4 4 3 3 4 4 6 6 7 5 4 6 6 4 5 5 7 4 2 4 3
7 4 5 4 5 5 6 4 6 7 4 6 5 5 4 7 7 6 6 6 6 4
7 5 8 4 6 7 5 2 5 5 7 5 5 4 5 5 6 6 6 5 6 8
8 4 6 5 9 7 8 7 7 6 6 5 5 9 6 3 4 3 5 6 8 10
9 6 7 6 7 7 7 5 8 7 7 6 9 6 4 4 5 4 5 6 8 8
9 10 6 8 7 9 7 8 6 6 3 10 8 3 2 6 8 5 8 8 7 8
9 12 9 10 8 9 7 7 7 7 5 4 9 2 5 7 6 7 8 8 12 9
9 8 7 6 9 8 7 7 7 9 8 5 9 3 3 6 6 7 7 8 9 12
9 9 9 6 8 8 8 7 8 10 9 7 8 6 3 7 6 5 8 9 8 4
Wind_Direction
172 212 232 154 256 268 215 171 171 192 152 174 185 176 162 160 201 207 212 208 202 201
181 246 331 32 255 208 194 173 174 156 173 189 156 146 161 178 176 130 151 153 177 253
179 217 250 78 187 173 202 180 135 147 179 201 160 152 160 184 136 134 124 145 212 242
149 214 61 112 174 156 168 181 156 153 169 152 157 156 149 146 140 130 199 181 221 134
163 146 82 190 101 160 171 192 166 170 148 140 124 133 157 140 142 159 157 65 63 73
155 88 134 110 126 143 194 184 167 139 141 125 133 129 133 138 122 95 113 148 94 98
117 152 147 121 127 154 156 224 168 116 130 118 106 123 117 98 108 143 173 166 144 168
131 180 121 138 129 119 131 130 97 147 82 85 115 102 103 114 152 162 152 149 113 71
119 143 116 147 134 133 139 136 120 120 128 151 114 80 36 114 154 148 118 114 113 102
138 142 146 154 125 128 112 138 127 130 129 128 103 79 57 4 116 122 116 99 99 96
159 132 151 137 141 124 130 115 114 104 92 120 109 114 45 333 132 123 112 114 112 101
154 135 161 145 146 145 160 143 139 139 123 92 128 216 355 342 119 120 101 99 101 101
154 147 140 128 127 139 143 130 132 127 155 132 134 159 309 314 128 113 111 90 85 62
151 147 128 144 128 148 132 120 113 108 128 145 145 138 283 290 135 146 121 122 122 112